Location: Devore Heights
(34.2372°N, 117.4156°W)
Time: 19:12:56
(UTC+00:00)

deb Explorer IX - Pass Details

Date: 15 September 2024
Orbit: 502 x 816 km, 38.7° (Epoch: 15 October)

Event Time Altitude Azimuth Distance (km) Brightness Sun altitude
Rises 03:55:35 0° 252° (WSW) 3,394 ? -24.7°
Reaches altitude 10° 03:58:07 10° 253° (WSW) 2,472 ? -25.2°
Maximum altitude 04:04:05 82° 340° (NNW) 859 ? -26.3°
Enters shadow 04:04:56 66° 53° (NE) 918 ? -26.5°
Drops below altitude 10° 04:09:56 10° 70° (ENE) 2,418 - -27.4°
Sets 04:12:23 0° 71° (ENE) 3,315 - -27.9°
